Flag for Spain Weather past 2 weeks in Huesca, Huesca, Spain

Now
64 °F

Sunny.


Feels Like: 64 °F
Forecast: 59 / 93 °F
Wind: 6 mph from Northwest

Location: Zaragoza / Aeropuerto

Current Time: Jul 23, 2014 at 10:12:31 AM

Latest Report: Jul 23, 2014 at 8:00 AM


Visibility: 10 mi

Pressure: 29.95 "Hg

Humidity: 73%

Dew point: 55 °F

Location of HuescaLocation

Historic Weather in Huesca — Graph

°F

Huesca temperature yesterday

Maximum temperature yesterday: 86 °F (at 5:00 PM)
Minimum temperature yesterday: 63 °F (at 5:00 AM)
Average temperature yesterday: 72 °F

Past Weeks' High & Low Weather Summary

 TemperatureHumidityPressure
High100 °F (Jul 17, 5:00 PM)82% (Jul 10, 6:30 AM)30.18 "Hg (Jul 10, 6:30 AM)
Low55 °F (Jul 10, 6:30 AM)17% (Jul 17, 5:00 PM)29.71 "Hg (Jul 18, 7:30 PM)
Average74 °F51%30.04 "Hg
* Reported Jul 8 7:00 AM — Jul 23 7:30 AM, Huesca, Weather by CustomWeather, © 2014

Note: Actual official high and low records may vary slightly from our data, if they occured in-between our weather recording intervals... More about our weather records

Advertising

Huesca weather history for previous 24 hours

 ConditionsComfort  
Time TempWeatherWind HumidityBarometerVisibility
7:30 AM
Jul 23
64 °FClear.8 mph73%29.95 "Hg10 mi
6:30 AM63 °FPassing clouds.3 mph73%29.95 "HgN/A
6:00 AM64 °FClear.No wind73%29.95 "Hg10 mi
5:30 AM66 °FClear.10 mph68%29.95 "Hg10 mi
5:00 AM66 °FClear.10 mph68%29.95 "Hg10 mi
4:30 AM66 °FClear.13 mph68%29.95 "Hg10 mi
4:00 AM68 °FClear.16 mph64%29.95 "Hg10 mi
3:30 AM68 °FClear.16 mph64%29.98 "Hg10 mi
3:00 AM68 °FClear.15 mph64%29.98 "Hg10 mi
2:30 AM68 °FClear.21 mph64%29.98 "Hg10 mi
2:00 AM68 °FClear.20 mph64%29.98 "Hg10 mi
1:00 AM70 °FClear.16 mph60%29.98 "Hg10 mi
7:00 PM
Jul 22
86 °FSunny.14 mph24%29.95 "Hg10 mi
6:30 PM86 °FSunny.15 mph24%29.95 "Hg10 mi
6:00 PM86 °FPassing clouds.15 mph24%29.95 "HgN/A
5:30 PM86 °FPassing clouds.15 mph25%29.95 "HgN/A
5:00 PM86 °FPassing clouds.15 mph27%29.98 "HgN/A
4:30 PM84 °FPassing clouds.14 mph29%29.98 "HgN/A
4:00 PM84 °FSunny.15 mph27%29.98 "Hg10 mi
3:30 PM82 °FPassing clouds.12 mph30%30.01 "HgN/A
3:00 PM82 °FPassing clouds.10 mph30%30.01 "HgN/A
2:30 PM81 °FPassing clouds.13 mph32%30.04 "HgN/A
2:00 PM79 °FPassing clouds.12 mph37%30.04 "HgN/A
1:30 PM77 °FPassing clouds.13 mph39%30.07 "HgN/A
1:00 PM75 °FPassing clouds.15 mph41%30.07 "HgN/A
12:30 PM75 °FPassing clouds.15 mph44%30.07 "HgN/A
12:00 PM73 °FPassing clouds.15 mph47%30.07 "HgN/A
11:30 AM73 °FPassing clouds.16 mph47%30.09 "HgN/A
11:00 AM72 °FSunny.20 mph53%30.09 "Hg10 mi
10:30 AM70 °FSunny.18 mph57%30.09 "Hg10 mi
10:00 AM68 °FSunny.21 mph56%30.09 "Hg10 mi
Weather by CustomWeather, © 2014

See weather overviewHow to use our weather pages